Back to catalog

FARTUSHNIY V.G.

AliveNavigationSSO
NORAD 57194·PAYLOAD·🇷🇺 Russia
This satellite name has not been confirmed by official sources yet.

Launched Jun 27, 2023 from Vostochny Cosmodrome

Loading…

Next Passes (next 24 hours)

TLE

FreshSource: Space-Track

Epoch: Sep 14, 2026, 14:28 UTC

1 57194U 23091AE  26257.60336906  .00007954  00000-0  30201-3 0  9990
2 57194  97.4971 320.8248 0011988 146.6236 213.5761 15.27035628177916

Track FARTUSHNIY V.G. in real time with AllMySat

Download on the App Store